Location: Knowlton
(51.2333°N, 1.2667°E)
Time: 03:18:00
(UTC+00:00)

BREEZE-M DEB (TANK) - Pass Details

Date: 18 April 2021
Orbit: 334 x 11681 km, 49.7° (Epoch: 06 May)

Event Time Altitude Azimuth Distance (km) Brightness Sun altitude
Rises 19:40:22 0° 232° (SW) 2,260 6.8 -7.1°
Reaches altitude 10° 19:41:50 10° 225° (SW) 1,592 5.9 -7.3°
Maximum altitude 19:44:51 47° 149° (SSE) 909 4.1 -7.8°
Drops below altitude 10° 19:52:19 10° 78° (ENE) 3,899 7.2 -8.8°
Sets 19:58:07 0° 75° (ENE) 6,337 8.3 -9.5°
